Location: Asheville, NC
(35.6000°N, 82.5500°W)
Time: 06:45:57
(UTC-05:00)

NO-84 - Pass Details

Date: 06 January 2018
Orbit: 336 x 568 km, 55.0° (Epoch: 15 January)

Event Time Altitude Azimuth Distance (km) Brightness Sun altitude
Exits shadow 05:22:36 16° 59° (ENE) 1,164 ? -27.3°
Drops below altitude 10° 05:24:01 10° 83° (E) 1,495 ? -27.0°
Sets 05:26:42 0° 103° (ESE) 2,414 ? -26.5°
